ROMMA est une association bénévole à but non lucratif. Votre soutien est indispensable : ADHERER à ROMMA ou FAIRE un DON

Chambon - (38, Isère)

Oisans (2460 m)   Longitude: 06° 10' 42" E   Latitude: 45° 01' 32" N Station partenaire n°803
 

Détail journalier du     <<     >>

Température Humidité Vent Dir Rafale Dir. rafale Neige 1 Neige 2
Heure (°C) (%) (km/h) (km/h) (cm) (cm)
01:00 -3.8904SO10NO067
02:00 -4.1925NNE12NNE067
03:00 -4.1903NNE10NNE067
04:00 -4.1903NNE8NE067
05:00 -4.2845NNE14O067
06:00 -4.6774NE16OSO067
07:00 -4.2646NNE33SSE067
08:00 -3.9627SE27SE066
09:00 -3.7616SE28SSE066
10:00 -3.6664SSE23SSE066
11:00 -3.2646S34SSO066
12:00 -3.1666SSE29SSE066
13:00 -3.2705S22S067
14:00 -3.57611NE32ENE067
15:00 -3.1757NE29NE067
16:00 -2.96910S41S067
17:00 -2.56414S42S067
18:00 -3.07311SSO32SSO067
19:00 -4.5929NE28SSO067
20:00 -3.8856NNE24O067
21:00 -4.5925N25SO067
22:00 -3.9917N38OSO067
23:00 -3.38516SSO40OSO067
minuit -3.18425SSO42SSO067

Graphique du 21-11-2019

 

Serveur OMMA